"datetime","temp","dp","rain_mm","uv","solar","mb","wind_mph","gust_mph","windchill","rh"
"2020-10-31 00:00:00",14.1,13.5,0.0,0.0,0,1017.5,3,7,"",96
"2020-10-31 00:01:00",14.1,13.5,0.0,0.0,0,1017.5,2,5,"",96
"2020-10-31 00:02:00",14.1,13.5,0.0,0.0,0,1017.4,1,3,"",96
"2020-10-31 00:03:00",14.1,13.5,0.0,0.0,0,1017.5,3,8,"",96
"2020-10-31 00:04:00",14.1,13.5,0.0,0.0,0,1017.4,3,5,"",96
"2020-10-31 00:05:00",14.1,13.5,0.0,0.0,0,1017.3,2,3,"",96
"2020-10-31 00:06:00",14.1,13.5,0.0,0.0,0,1017.3,2,4,"",96
"2020-10-31 00:07:00",14.1,13.5,0.0,0.0,0,1017.3,3,5,"",96
"2020-10-31 00:08:00",14.1,13.5,0.0,0.0,0,1017.3,1,3,"",96
"2020-10-31 00:09:00",14.1,13.5,0.0,0.0,0,1017.3,2,4,"",96
"2020-10-31 00:10:00",14.1,13.5,0.0,0.0,0,1017.3,3,5,"",96
"2020-10-31 00:11:00",14.1,13.5,0.0,0.0,0,1017.3,2,3,"",96
"2020-10-31 00:12:00",14.1,13.5,0.0,0.0,0,1017.3,1,6,"",96
"2020-10-31 00:13:00",14.1,13.5,0.0,0.0,0,1017.3,2,4,"",96
"2020-10-31 00:14:00",14.1,13.5,0.0,0.0,0,1017.3,2,3,"",96
"2020-10-31 00:15:00",14.1,13.5,0.0,0.0,0,1017.3,2,5,"",96
"2020-10-31 00:16:00",14.1,13.5,0.0,0.0,0,1017.2,2,5,"",96
"2020-10-31 00:17:00",14.1,13.5,0.0,0.0,0,1017.3,3,8,"",96
"2020-10-31 00:18:00",14.1,13.5,0.0,0.0,0,1017.2,2,7,"",96
"2020-10-31 00:19:00",14.1,13.5,0.0,0.0,0,1017.2,3,8,"",96
"2020-10-31 00:20:00",14.1,13.5,0.0,0.0,0,1017.2,2,2,"",96
"2020-10-31 00:21:00",14.1,13.5,0.0,0.0,0,1017.2,2,3,"",96
"2020-10-31 00:22:00",14.1,13.5,0.0,0.0,0,1017.2,1,3,"",96
"2020-10-31 00:23:00",14.1,13.5,0.0,0.0,0,1017.2,2,3,"",96
"2020-10-31 00:24:00",14.1,13.5,0.0,0.0,0,1017.2,3,4,"",96
"2020-10-31 00:25:00",14.1,13.5,0.0,0.0,0,1017.1,3,5,"",96
"2020-10-31 00:26:00",14.1,13.5,0.0,0.0,0,1017.1,1,3,"",96
"2020-10-31 00:27:00",14.1,13.5,0.0,0.0,0,1017.1,2,3,"",96
"2020-10-31 00:28:00",14.1,13.5,0.0,0.0,0,1017.1,1,3,"",96
"2020-10-31 00:29:00",14.1,13.5,0.0,0.0,0,1017.1,2,6,"",96
"2020-10-31 00:30:00",14.1,13.5,0.0,0.0,0,1017.0,2,5,"",96
"2020-10-31 00:31:00",14.1,13.5,0.0,0.0,0,1017.0,3,7,"",96
"2020-10-31 00:32:00",14.1,13.5,0.0,0.0,0,1017.0,4,8,"",96
"2020-10-31 00:33:00",14.1,13.5,0.0,0.0,0,1017.0,4,8,"",96
"2020-10-31 00:34:00",14.1,13.5,0.0,0.0,0,1017.0,2,4,"",96
"2020-10-31 00:35:00",14.1,13.5,0.0,0.0,0,1017.0,3,5,"",96
"2020-10-31 00:36:00",14.1,13.5,0.0,0.0,0,1016.9,2,4,"",96
"2020-10-31 00:37:00",14.1,13.5,0.0,0.0,0,1016.9,1,3,"",96
"2020-10-31 00:38:00",14.1,13.5,0.0,0.0,0,1016.9,2,3,"",96
"2020-10-31 00:39:00",14.1,13.5,0.0,0.0,0,1016.9,1,2,"",96
"2020-10-31 00:40:00",14.1,13.5,0.0,0.0,0,1016.8,1,3,"",96
"2020-10-31 00:41:00",14.1,13.5,0.0,0.0,0,1016.9,5,8,"",96
"2020-10-31 00:42:00",14.1,13.5,0.0,0.0,0,1016.9,2,4,"",96
"2020-10-31 00:43:00",14.1,13.5,0.0,0.0,0,1016.8,2,5,"",96
"2020-10-31 00:44:00",14.1,13.5,0.0,0.0,0,1016.8,1,3,"",96
"2020-10-31 00:45:00",14.1,13.5,0.0,0.0,0,1016.8,1,2,"",96
"2020-10-31 00:46:00",14.1,13.5,0.0,0.0,0,1016.8,3,6,"",96
"2020-10-31 00:47:00",14.0,13.4,0.0,0.0,0,1016.7,1,3,"",96
"2020-10-31 00:48:00",14.1,13.5,0.0,0.0,0,1016.7,2,4,"",96
"2020-10-31 00:49:00",14.1,13.5,0.0,0.0,0,1016.7,2,5,"",96
"2020-10-31 00:50:00",14.0,13.4,0.0,0.0,0,1016.6,1,3,"",96
"2020-10-31 00:51:00",14.0,13.4,0.0,0.0,0,1016.7,2,3,"",96
"2020-10-31 00:52:00",14.1,13.5,0.0,0.0,0,1016.6,3,5,"",96
"2020-10-31 00:53:00",14.0,13.4,0.0,0.0,0,1016.6,1,3,"",96
"2020-10-31 00:54:00",14.0,13.4,0.0,0.0,0,1016.6,1,3,"",96
"2020-10-31 00:55:00",14.0,13.4,0.0,0.0,0,1016.6,2,5,"",96
"2020-10-31 00:56:00",14.0,13.4,0.0,0.0,0,1016.6,5,8,"",96
"2020-10-31 00:57:00",14.1,13.5,0.0,0.0,0,1016.6,3,5,"",96
"2020-10-31 00:58:00",14.0,13.4,0.0,0.0,0,1016.6,3,7,"",96
"2020-10-31 00:59:00",14.0,13.4,0.0,0.0,0,1016.5,2,5,"",96
"2020-10-31 01:00:00",14.0,13.4,0.0,0.0,0,1016.6,2,4,"",96
"2020-10-31 01:01:00",14.0,13.4,0.0,0.0,0,1016.5,2,4,"",96
"2020-10-31 01:02:00",14.0,13.4,0.0,0.0,0,1016.5,1,2,"",96
"2020-10-31 01:03:00",13.9,13.3,0.0,0.0,0,1016.5,2,4,"",96
"2020-10-31 01:04:00",14.0,13.4,0.0,0.0,0,1016.5,2,3,"",96
"2020-10-31 01:05:00",14.0,13.4,0.0,0.0,0,1016.5,2,2,"",96
"2020-10-31 01:06:00",14.0,13.4,0.0,0.0,0,1016.5,2,4,"",96
"2020-10-31 01:07:00",14.0,13.4,0.0,0.0,0,1016.4,2,3,"",96
"2020-10-31 01:08:00",14.0,13.4,0.0,0.0,0,1016.5,1,2,"",96
"2020-10-31 01:09:00",14.0,13.4,0.0,0.0,0,1016.5,2,3,"",96
"2020-10-31 01:10:00",14.0,13.4,0.0,0.0,0,1016.4,2,4,"",96
"2020-10-31 01:11:00",14.0,13.4,0.0,0.0,0,1016.5,2,5,"",96
"2020-10-31 01:12:00",14.0,13.4,0.0,0.0,0,1016.5,2,3,"",96
"2020-10-31 01:13:00",14.0,13.4,0.0,0.0,0,1016.5,4,9,"",96
"2020-10-31 01:14:00",14.0,13.4,0.0,0.0,0,1016.4,1,4,"",96
"2020-10-31 01:15:00",13.9,13.3,0.0,0.0,0,1016.4,4,7,"",96
"2020-10-31 01:16:00",14.0,13.4,0.0,0.0,0,1016.4,2,4,"",96
"2020-10-31 01:17:00",13.9,13.3,0.0,0.0,0,1016.4,4,6,"",96
"2020-10-31 01:18:00",13.9,13.3,0.0,0.0,0,1016.3,4,9,"",96
"2020-10-31 01:19:00",13.9,13.3,0.0,0.0,0,1016.3,3,7,"",96
"2020-10-31 01:20:00",13.9,13.3,0.0,0.0,0,1016.3,3,6,"",96
"2020-10-31 01:21:00",13.9,13.3,0.0,0.0,0,1016.3,3,5,"",96
"2020-10-31 01:22:00",13.9,13.3,0.0,0.0,0,1016.3,5,10,"",96
"2020-10-31 01:23:00",13.9,13.3,0.0,0.0,0,1016.2,3,5,"",96
"2020-10-31 01:24:00",13.9,13.3,0.0,0.0,0,1016.2,2,5,"",96
"2020-10-31 01:25:00",13.9,13.3,0.0,0.0,0,1016.3,2,4,"",96
"2020-10-31 01:26:00",13.9,13.3,0.0,0.0,0,1016.3,2,3,"",96
"2020-10-31 01:27:00",13.9,13.3,0.2,0.0,0,1016.2,2,3,"",96
"2020-10-31 01:28:00",13.9,13.3,0.2,0.0,0,1016.2,3,6,"",96
"2020-10-31 01:29:00",13.9,13.3,0.2,0.0,0,1016.2,2,5,"",96
"2020-10-31 01:30:00",13.9,13.3,0.2,0.0,0,1016.2,2,4,"",96
"2020-10-31 01:31:00",13.9,13.3,0.2,0.0,0,1016.1,2,5,"",96
"2020-10-31 01:32:00",13.9,13.3,0.2,0.0,0,1016.1,1,3,"",96
"2020-10-31 01:33:00",13.9,13.3,0.2,0.0,0,1016.1,4,8,"",96
"2020-10-31 01:34:00",13.9,13.3,0.2,0.0,0,1016.1,2,5,"",96
"2020-10-31 01:35:00",13.9,13.3,0.2,0.0,0,1016.1,2,4,"",96
"2020-10-31 01:36:00",13.9,13.3,0.2,0.0,0,1016.1,3,6,"",96
"2020-10-31 01:37:00",13.9,13.3,0.2,0.0,0,1016.1,2,5,"",96
"2020-10-31 01:38:00",13.9,13.3,0.2,0.0,0,1016.1,3,7,"",96
"2020-10-31 01:39:00",13.9,13.3,0.2,0.0,0,1016.1,2,4,"",96
"2020-10-31 01:40:00",13.9,13.3,0.2,0.0,0,1016.1,2,4,"",96
"2020-10-31 01:41:00",13.9,13.3,0.2,0.0,0,1016.1,2,4,"",96
"2020-10-31 01:42:00",13.9,13.3,0.2,0.0,0,1016.1,2,5,"",96
"2020-10-31 01:43:00",13.9,13.3,0.2,0.0,0,1016.1,2,4,"",96
"2020-10-31 01:44:00",13.9,13.3,0.2,0.0,0,1016.1,4,6,"",96
"2020-10-31 01:45:00",13.9,13.3,0.2,0.0,0,1016.0,2,3,"",96
"2020-10-31 01:46:00",13.9,13.3,0.2,0.0,0,1016.0,2,3,"",96
"2020-10-31 01:47:00",13.9,13.3,0.2,0.0,0,1016.0,1,3,"",96
"2020-10-31 01:48:00",13.8,13.2,0.2,0.0,0,1016.0,2,4,"",96
"2020-10-31 01:49:00",13.9,13.3,0.2,0.0,0,1015.9,2,3,"",96
"2020-10-31 01:50:00",13.8,13.2,0.2,0.0,0,1015.9,1,2,"",96
"2020-10-31 01:51:00",13.9,13.3,0.2,0.0,0,1016.0,2,4,"",96
"2020-10-31 01:52:00",13.9,13.3,0.2,0.0,0,1015.8,2,5,"",96
"2020-10-31 01:53:00",13.9,13.3,0.2,0.0,0,1015.8,2,9,"",96
"2020-10-31 01:54:00",13.9,13.3,0.2,0.0,0,1015.8,3,5,"",96
"2020-10-31 01:55:00",13.9,13.3,0.2,0.0,0,1015.8,2,3,"",96
"2020-10-31 01:56:00",13.9,13.3,0.2,0.0,0,1015.8,3,8,"",96
"2020-10-31 01:57:00",13.9,13.3,0.2,0.0,0,1015.8,2,4,"",96
"2020-10-31 01:58:00",13.9,13.3,0.2,0.0,0,1015.9,4,8,"",96
"2020-10-31 01:59:00",13.8,13.2,0.2,0.0,0,1015.8,3,5,"",96
"2020-10-31 02:00:00",13.9,13.3,0.2,0.0,0,1015.7,7,12,"",96
"2020-10-31 02:01:00",13.8,13.2,0.2,0.0,0,1015.7,4,8,"",96
"2020-10-31 02:02:00",13.8,13.2,0.2,0.0,0,1015.8,3,4,"",96
"2020-10-31 02:03:00",13.8,13.2,0.2,0.0,0,1015.7,3,5,"",96
"2020-10-31 02:04:00",13.8,13.2,0.2,0.0,0,1015.7,2,3,"",96
"2020-10-31 02:05:00",13.8,13.2,0.2,0.0,0,1015.6,3,5,"",96
"2020-10-31 02:06:00",13.8,13.2,0.2,0.0,0,1015.7,1,2,"",96
"2020-10-31 02:07:00",13.8,13.2,0.2,0.0,0,1015.6,3,4,"",96
"2020-10-31 02:08:00",13.8,13.2,0.2,0.0,0,1015.6,2,3,"",96
"2020-10-31 02:09:00",13.8,13.2,0.2,0.0,0,1015.6,1,3,"",96
"2020-10-31 02:10:00",13.8,13.2,0.2,0.0,0,1015.6,1,2,"",96
"2020-10-31 02:11:00",13.8,13.2,0.2,0.0,0,1015.6,3,6,"",96
"2020-10-31 02:12:00",13.8,13.2,0.2,0.0,0,1015.6,4,6,"",96
"2020-10-31 02:13:00",13.8,13.2,0.2,0.0,0,1015.6,2,4,"",96
"2020-10-31 02:14:00",13.8,13.2,0.2,0.0,0,1015.6,2,4,"",96
"2020-10-31 02:15:00",13.8,13.2,0.2,0.0,0,1015.5,3,5,"",96
"2020-10-31 02:16:00",13.8,13.2,0.2,0.0,0,1015.6,1,2,"",96
"2020-10-31 02:17:00",13.8,13.2,0.2,0.0,0,1015.5,2,3,"",96
"2020-10-31 02:18:00",13.8,13.2,0.2,0.0,0,1015.5,2,5,"",96
"2020-10-31 02:19:00",13.8,13.2,0.2,0.0,0,1015.5,2,3,"",96
"2020-10-31 02:20:00",13.8,13.2,0.2,0.0,0,1015.5,1,2,"",96
"2020-10-31 02:21:00",13.8,13.2,0.2,0.0,0,1015.5,2,6,"",96
"2020-10-31 02:22:00",13.8,13.2,0.2,0.0,0,1015.5,2,4,"",96
"2020-10-31 02:23:00",13.8,13.2,0.2,0.0,0,1015.5,4,10,"",96
"2020-10-31 02:24:00",13.8,13.2,0.2,0.0,0,1015.5,3,5,"",96
"2020-10-31 02:25:00",13.8,13.2,0.2,0.0,0,1015.4,1,3,"",96
"2020-10-31 02:26:00",13.8,13.2,0.2,0.0,0,1015.3,2,3,"",96
"2020-10-31 02:27:00",13.8,13.2,0.2,0.0,0,1015.4,2,4,"",96
"2020-10-31 02:28:00",13.8,13.2,0.2,0.0,0,1015.4,2,3,"",96
"2020-10-31 02:29:00",13.8,13.2,0.2,0.0,0,1015.3,2,3,"",96
"2020-10-31 02:30:00",13.8,13.2,0.2,0.0,0,1015.4,2,4,"",96
"2020-10-31 02:31:00",13.8,13.2,0.2,0.0,0,1015.3,3,4,"",96
"2020-10-31 02:32:00",13.8,13.2,0.2,0.0,0,1015.3,2,3,"",96
"2020-10-31 02:33:00",13.8,13.2,0.2,0.0,0,1015.3,2,3,"",96
"2020-10-31 02:34:00",13.8,13.2,0.2,0.0,0,1015.3,2,4,"",96
"2020-10-31 02:35:00",13.7,13.1,0.2,0.0,0,1015.3,2,5,"",96
"2020-10-31 02:36:00",13.8,13.2,0.2,0.0,0,1015.3,3,6,"",96
"2020-10-31 02:37:00",13.7,13.1,0.2,0.0,0,1015.3,2,3,"",96
"2020-10-31 02:38:00",13.7,13.1,0.2,0.0,0,1015.3,1,3,"",96
"2020-10-31 02:39:00",13.7,13.1,0.2,0.0,0,1015.3,2,3,"",96
"2020-10-31 02:40:00",13.7,13.1,0.2,0.0,0,1015.3,2,5,"",96
"2020-10-31 02:41:00",13.7,13.1,0.2,0.0,0,1015.2,4,5,"",96
"2020-10-31 02:42:00",13.7,13.1,0.2,0.0,0,1015.2,2,4,"",96
"2020-10-31 02:43:00",13.7,13.1,0.2,0.0,0,1015.2,2,4,"",96
"2020-10-31 02:44:00",13.7,13.1,0.2,0.0,0,1015.2,1,4,"",96
"2020-10-31 02:45:00",13.7,13.1,0.2,0.0,0,1015.1,2,7,"",96
"2020-10-31 02:46:00",13.7,13.1,0.2,0.0,0,1015.1,2,4,"",96
"2020-10-31 02:47:00",13.7,13.1,0.2,0.0,0,1015.1,2,4,"",96
"2020-10-31 02:48:00",13.7,13.1,0.2,0.0,0,1015.1,3,4,"",96
"2020-10-31 02:49:00",13.7,13.1,0.2,0.0,0,1015.1,2,4,"",96
"2020-10-31 02:50:00",13.7,13.1,0.2,0.0,0,1015.1,2,4,"",96
"2020-10-31 02:51:00",13.7,13.1,0.2,0.0,0,1015.1,2,4,"",96
"2020-10-31 02:52:00",13.7,13.1,0.2,0.0,0,1015.0,3,10,"",96
"2020-10-31 02:53:00",13.7,13.1,0.2,0.0,0,1015.0,3,6,"",96
"2020-10-31 02:54:00",13.7,13.1,0.2,0.0,0,1015.0,4,7,"",96
"2020-10-31 02:55:00",13.7,13.1,0.2,0.0,0,1015.0,2,3,"",96
"2020-10-31 02:56:00",13.6,13.0,0.2,0.0,0,1014.9,3,4,"",96
"2020-10-31 02:57:00",13.7,13.1,0.2,0.0,0,1014.9,1,4,"",96
"2020-10-31 02:58:00",13.7,13.1,0.2,0.0,0,1014.8,1,4,"",96
"2020-10-31 02:59:00",13.7,13.1,0.2,0.0,0,1014.8,1,2,"",96
"2020-10-31 03:00:00",13.6,13.0,0.2,0.0,0,1014.8,1,4,"",96
"2020-10-31 03:01:00",13.6,13.0,0.2,0.0,0,1014.8,2,4,"",96
"2020-10-31 03:02:00",13.7,13.1,0.2,0.0,0,1014.8,2,4,"",96
"2020-10-31 03:03:00",13.6,13.0,0.2,0.0,0,1014.8,3,7,"",96
"2020-10-31 03:04:00",13.6,13.0,0.2,0.0,0,1014.8,4,7,"",96
"2020-10-31 03:05:00",13.7,13.1,0.2,0.0,0,1014.8,2,4,"",96
"2020-10-31 03:06:00",13.6,13.0,0.2,0.0,0,1014.7,1,2,"",96
"2020-10-31 03:07:00",13.6,13.0,0.2,0.0,0,1014.7,2,7,"",96
"2020-10-31 03:08:00",13.6,13.0,0.2,0.0,0,1014.7,3,6,"",96
"2020-10-31 03:09:00",13.6,13.0,0.2,0.0,0,1014.7,3,6,"",96
"2020-10-31 03:10:00",13.6,13.0,0.2,0.0,0,1014.6,1,2,"",96
"2020-10-31 03:11:00",13.6,13.0,0.2,0.0,0,1014.7,1,3,"",96
"2020-10-31 03:12:00",13.6,13.0,0.2,0.0,0,1014.6,1,3,"",96
"2020-10-31 03:13:00",13.6,13.0,0.2,0.0,0,1014.7,2,3,"",96
"2020-10-31 03:14:00",13.6,13.0,0.2,0.0,0,1014.7,3,5,"",96
"2020-10-31 03:15:00",13.6,13.0,0.2,0.0,0,1014.6,2,6,"",96
"2020-10-31 03:16:00",13.6,13.0,0.2,0.0,0,1014.7,3,5,"",96
"2020-10-31 03:17:00",13.6,13.0,0.2,0.0,0,1014.6,2,4,"",96
"2020-10-31 03:18:00",13.6,13.0,0.2,0.0,0,1014.6,1,3,"",96
"2020-10-31 03:19:00",13.6,13.0,0.2,0.0,0,1014.6,4,6,"",96
"2020-10-31 03:20:00",13.6,13.0,0.2,0.0,0,1014.6,2,5,"",96
"2020-10-31 03:21:00",13.6,13.0,0.2,0.0,0,1014.6,2,4,"",96
"2020-10-31 03:22:00",13.6,13.0,0.2,0.0,0,1014.6,4,10,"",96
"2020-10-31 03:23:00",13.6,13.0,0.2,0.0,0,1014.6,4,6,"",96
"2020-10-31 03:24:00",13.5,12.9,0.2,0.0,0,1014.6,3,5,"",96
"2020-10-31 03:25:00",13.5,12.9,0.2,0.0,0,1014.5,3,7,"",96
"2020-10-31 03:26:00",13.5,12.9,0.2,0.0,0,1014.5,1,3,"",96
"2020-10-31 03:27:00",13.6,13.0,0.2,0.0,0,1014.5,1,4,"",96
"2020-10-31 03:28:00",13.5,12.9,0.2,0.0,0,1014.5,2,4,"",96
"2020-10-31 03:29:00",13.5,12.9,0.2,0.0,0,1014.5,2,3,"",96
"2020-10-31 03:30:00",13.5,12.9,0.2,0.0,0,1014.5,1,2,"",96
"2020-10-31 03:31:00",13.5,12.9,0.2,0.0,0,1014.5,0,1,"",96
"2020-10-31 03:32:00",13.5,12.9,0.2,0.0,0,1014.4,2,6,"",96
"2020-10-31 03:33:00",13.5,12.9,0.2,0.0,0,1014.4,2,4,"",96
"2020-10-31 03:34:00",13.5,12.9,0.2,0.0,0,1014.4,3,6,"",96
"2020-10-31 03:35:00",13.5,12.9,0.2,0.0,0,1014.4,4,6,"",96
"2020-10-31 03:36:00",13.4,12.8,0.2,0.0,0,1014.4,1,3,"",96
"2020-10-31 03:37:00",13.4,12.8,0.2,0.0,0,1014.4,2,3,"",96
"2020-10-31 03:38:00",13.4,12.8,0.2,0.0,0,1014.4,1,3,"",96
"2020-10-31 03:39:00",13.4,12.8,0.2,0.0,0,1014.4,4,9,"",96
"2020-10-31 03:40:00",13.4,12.8,0.2,0.0,0,1014.4,3,6,"",96
"2020-10-31 03:41:00",13.4,12.8,0.2,0.0,0,1014.3,1,3,"",96
"2020-10-31 03:42:00",13.4,12.8,0.2,0.0,0,1014.4,1,3,"",96
"2020-10-31 03:43:00",13.4,12.8,0.2,0.0,0,1014.4,4,5,"",96
"2020-10-31 03:44:00",13.4,12.8,0.2,0.0,0,1014.3,1,2,"",96
"2020-10-31 03:45:00",13.4,12.8,0.2,0.0,0,1014.4,1,3,"",96
"2020-10-31 03:46:00",13.4,12.8,0.2,0.0,0,1014.3,1,3,"",96
"2020-10-31 03:47:00",13.4,12.8,0.2,0.0,0,1014.4,2,3,"",96
"2020-10-31 03:48:00",13.4,12.8,0.2,0.0,0,1014.4,2,3,"",96
"2020-10-31 03:49:00",13.4,12.8,0.2,0.0,0,1014.4,2,4,"",96
"2020-10-31 03:50:00",13.4,12.8,0.2,0.0,0,1014.3,1,2,"",96
"2020-10-31 03:51:00",13.4,12.8,0.2,0.0,0,1014.4,3,7,"",96
"2020-10-31 03:52:00",13.4,12.8,0.2,0.0,0,1014.3,2,3,"",96
"2020-10-31 03:53:00",13.4,12.8,0.2,0.0,0,1014.3,1,2,"",96
"2020-10-31 03:54:00",13.3,12.7,0.2,0.0,0,1014.3,1,3,"",96
"2020-10-31 03:55:00",13.3,12.7,0.2,0.0,0,1014.3,3,5,"",96
"2020-10-31 03:56:00",13.4,12.8,0.2,0.0,0,1014.3,3,5,"",96
"2020-10-31 03:57:00",13.3,12.7,0.2,0.0,0,1014.2,2,5,"",96
"2020-10-31 03:58:00",13.3,12.7,0.2,0.0,0,1014.3,4,7,"",96
"2020-10-31 03:59:00",13.3,12.7,0.2,0.0,0,1014.2,2,4,"",96
"2020-10-31 04:00:00",13.3,12.7,0.2,0.0,0,1014.2,1,3,"",96
"2020-10-31 04:01:00",13.3,12.7,0.2,0.0,0,1014.3,3,5,"",96
"2020-10-31 04:02:00",13.3,12.7,0.2,0.0,0,1014.3,2,4,"",96
"2020-10-31 04:03:00",13.3,12.7,0.2,0.0,0,1014.3,2,4,"",96
"2020-10-31 04:04:00",13.3,12.7,0.2,0.0,0,1014.2,2,4,"",96
"2020-10-31 04:05:00",13.3,12.7,0.2,0.0,0,1014.2,1,2,"",96
"2020-10-31 04:06:00",13.3,12.5,0.2,0.0,0,1014.3,1,2,"",95
"2020-10-31 04:07:00",13.3,12.7,0.2,0.0,0,1014.2,1,3,"",96
"2020-10-31 04:08:00",13.2,12.4,0.2,0.0,0,1014.2,1,2,"",95
"2020-10-31 04:09:00",13.3,12.5,0.2,0.0,0,1014.2,1,3,"",95
"2020-10-31 04:10:00",13.3,12.5,0.2,0.0,0,1014.2,1,3,"",95
"2020-10-31 04:11:00",13.3,12.5,0.2,0.0,0,1014.2,2,4,"",95
"2020-10-31 04:12:00",13.2,12.4,0.2,0.0,0,1014.2,2,3,"",95
"2020-10-31 04:13:00",13.2,12.4,0.2,0.0,0,1014.2,3,7,"",95
"2020-10-31 04:14:00",13.3,12.5,0.2,0.0,0,1014.1,3,4,"",95
"2020-10-31 04:15:00",13.2,12.4,0.2,0.0,0,1014.2,2,4,"",95
"2020-10-31 04:16:00",13.2,12.4,0.2,0.0,0,1014.2,3,6,"",95
"2020-10-31 04:17:00",13.2,12.4,0.2,0.0,0,1014.1,2,7,"",95
"2020-10-31 04:18:00",13.2,12.4,0.2,0.0,0,1014.1,3,4,"",95
"2020-10-31 04:19:00",13.2,12.4,0.2,0.0,0,1014.0,1,2,"",95
"2020-10-31 04:20:00",13.2,12.4,0.2,0.0,0,1014.0,3,10,"",95
"2020-10-31 04:21:00",13.2,12.4,0.2,0.0,0,1014.0,2,4,"",95
"2020-10-31 04:22:00",13.2,12.4,0.2,0.0,0,1014.0,2,4,"",95
"2020-10-31 04:23:00",13.2,12.4,0.2,0.0,0,1014.0,2,3,"",95
"2020-10-31 04:24:00",13.2,12.4,0.2,0.0,0,1014.0,2,3,"",95
"2020-10-31 04:25:00",13.2,12.4,0.2,0.0,0,1014.0,4,6,"",95
"2020-10-31 04:26:00",13.2,12.4,0.2,0.0,0,1013.9,2,4,"",95
"2020-10-31 04:27:00",13.2,12.4,0.2,0.0,0,1013.9,2,4,"",95
"2020-10-31 04:28:00",13.2,12.4,0.2,0.0,0,1013.8,2,3,"",95
"2020-10-31 04:29:00",13.2,12.4,0.2,0.0,0,1013.8,2,3,"",95
"2020-10-31 04:30:00",13.2,12.4,0.2,0.0,0,1013.8,2,4,"",95
"2020-10-31 04:31:00",13.2,12.4,0.2,0.0,0,1013.9,2,3,"",95
"2020-10-31 04:32:00",13.2,12.4,0.2,0.0,0,1013.8,1,3,"",95
"2020-10-31 04:33:00",13.2,12.4,0.2,0.0,0,1013.8,1,4,"",95
"2020-10-31 04:34:00",13.2,12.4,0.2,0.0,0,1013.8,1,3,"",95
"2020-10-31 04:35:00",13.2,12.4,0.2,0.0,0,1013.7,1,2,"",95
"2020-10-31 04:36:00",13.2,12.4,0.2,0.0,0,1013.7,1,3,"",95
"2020-10-31 04:37:00",13.2,12.4,0.2,0.0,0,1013.7,2,5,"",95
"2020-10-31 04:38:00",13.2,12.4,0.2,0.0,0,1013.7,1,5,"",95
"2020-10-31 04:39:00",13.2,12.4,0.2,0.0,0,1013.7,3,7,"",95
"2020-10-31 04:40:00",13.2,12.4,0.2,0.0,0,1013.7,2,3,"",95
"2020-10-31 04:41:00",13.2,12.4,0.2,0.0,0,1013.6,4,8,"",95
"2020-10-31 04:42:00",13.1,12.3,0.2,0.0,0,1013.6,2,7,"",95
"2020-10-31 04:43:00",13.2,12.4,0.2,0.0,0,1013.6,2,4,"",95
"2020-10-31 04:44:00",13.2,12.4,0.2,0.0,0,1013.6,3,5,"",95
"2020-10-31 04:45:00",13.2,12.4,0.2,0.0,0,1013.5,3,5,"",95
"2020-10-31 04:46:00",13.2,12.4,0.2,0.0,0,1013.5,2,5,"",95
"2020-10-31 04:47:00",13.1,12.3,0.2,0.0,0,1013.5,2,6,"",95
"2020-10-31 04:48:00",13.1,12.3,0.2,0.0,0,1013.5,3,5,"",95
"2020-10-31 04:49:00",13.1,12.3,0.2,0.0,0,1013.5,2,5,"",95
"2020-10-31 04:50:00",13.1,12.3,0.2,0.0,0,1013.4,3,9,"",95
"2020-10-31 04:51:00",13.1,12.3,0.2,0.0,0,1013.5,4,8,"",95
"2020-10-31 04:52:00",13.1,12.3,0.2,0.0,0,1013.4,2,5,"",95
"2020-10-31 04:53:00",13.1,12.3,0.2,0.0,0,1013.4,1,3,"",95
"2020-10-31 04:54:00",13.1,12.3,0.2,0.0,0,1013.4,2,5,"",95
"2020-10-31 04:55:00",13.1,12.3,0.2,0.0,0,1013.3,3,4,"",95
"2020-10-31 04:56:00",13.1,12.3,0.2,0.0,0,1013.4,3,4,"",95
"2020-10-31 04:57:00",13.1,12.3,0.2,0.0,0,1013.5,4,10,"",95
"2020-10-31 04:58:00",13.1,12.3,0.2,0.0,0,1013.4,4,8,"",95
"2020-10-31 04:59:00",13.1,12.3,0.2,0.0,0,1013.3,2,3,"",95
"2020-10-31 05:00:00",13.1,12.3,0.2,0.0,0,1013.2,2,5,"",95
"2020-10-31 05:01:00",13.1,12.3,0.2,0.0,0,1013.2,1,4,"",95
"2020-10-31 05:02:00",13.1,12.3,0.2,0.0,0,1013.3,4,9,"",95
"2020-10-31 05:03:00",13.1,12.3,0.2,0.0,0,1013.2,2,4,"",95
"2020-10-31 05:04:00",13.1,12.3,0.2,0.0,0,1013.1,4,8,"",95
"2020-10-31 05:05:00",13.1,12.3,0.2,0.0,0,1013.1,4,8,"",95
"2020-10-31 05:06:00",13.0,12.2,0.2,0.0,0,1013.1,4,9,"",95
"2020-10-31 05:07:00",13.1,12.3,0.2,0.0,0,1013.0,3,6,"",95
"2020-10-31 05:08:00",13.0,12.2,0.2,0.0,0,1013.0,3,7,"",95
"2020-10-31 05:09:00",13.1,12.3,0.2,0.0,0,1013.0,3,7,"",95
"2020-10-31 05:10:00",13.1,12.3,0.2,0.0,0,1012.9,4,7,"",95
"2020-10-31 05:11:00",13.1,12.3,0.2,0.0,0,1013.0,3,6,"",95
"2020-10-31 05:12:00",13.0,12.2,0.2,0.0,0,1013.0,3,7,"",95
"2020-10-31 05:13:00",13.0,12.2,0.2,0.0,0,1013.0,4,6,"",95
"2020-10-31 05:14:00",13.0,12.2,0.2,0.0,0,1013.0,2,5,"",95
"2020-10-31 05:15:00",13.0,12.2,0.2,0.0,0,1012.9,2,6,"",95
"2020-10-31 05:16:00",13.0,12.2,0.2,0.0,0,1012.9,4,8,"",95
"2020-10-31 05:17:00",13.0,12.2,0.2,0.0,0,1012.8,3,6,"",95
"2020-10-31 05:18:00",13.0,12.2,0.2,0.0,0,1012.8,2,5,"",95
"2020-10-31 05:19:00",13.1,12.3,0.2,0.0,0,1012.8,3,6,"",95
"2020-10-31 05:20:00",13.0,12.2,0.2,0.0,0,1012.7,4,5,"",95
"2020-10-31 05:21:00",13.0,12.2,0.2,0.0,0,1012.8,5,9,"",95
"2020-10-31 05:22:00",13.0,12.2,0.2,0.0,0,1012.7,2,4,"",95
"2020-10-31 05:23:00",13.0,12.2,0.2,0.0,0,1012.7,2,5,"",95
"2020-10-31 05:24:00",13.0,12.2,0.2,0.0,0,1012.7,3,8,"",95
"2020-10-31 05:25:00",13.0,12.2,0.2,0.0,0,1012.6,3,7,"",95
"2020-10-31 05:26:00",13.0,12.2,0.2,0.0,0,1012.6,2,4,"",95
"2020-10-31 05:27:00",13.1,12.3,0.2,0.0,0,1012.7,4,8,"",95
"2020-10-31 05:28:00",13.0,12.2,0.2,0.0,0,1012.6,1,3,"",95
"2020-10-31 05:29:00",13.0,12.2,0.2,0.0,0,1012.6,3,7,"",95
"2020-10-31 05:30:00",13.1,12.3,0.2,0.0,0,1012.5,4,9,"",95
"2020-10-31 05:31:00",13.1,12.3,0.2,0.0,0,1012.5,1,3,"",95
"2020-10-31 05:32:00",13.1,12.3,0.2,0.0,0,1012.5,3,9,"",95
"2020-10-31 05:33:00",13.1,12.3,0.2,0.0,0,1012.4,4,7,"",95
"2020-10-31 05:34:00",13.1,12.3,0.2,0.0,0,1012.4,3,7,"",95
"2020-10-31 05:35:00",13.1,12.3,0.2,0.0,0,1012.3,1,3,"",95
"2020-10-31 05:36:00",13.1,12.3,0.2,0.0,0,1012.2,3,6,"",95
"2020-10-31 05:37:00",13.1,12.3,0.2,0.0,0,1012.2,3,6,"",95
"2020-10-31 05:38:00",13.1,12.3,0.2,0.0,0,1012.1,3,8,"",95
"2020-10-31 05:39:00",13.1,12.3,0.2,0.0,0,1012.1,4,7,"",95
"2020-10-31 05:40:00",13.1,12.3,0.2,0.0,0,1012.0,2,4,"",95
"2020-10-31 05:41:00",13.1,12.3,0.2,0.0,0,1012.0,1,4,"",95
"2020-10-31 05:42:00",13.1,12.3,0.2,0.0,0,1012.1,2,4,"",95
"2020-10-31 05:43:00",13.1,12.3,0.2,0.0,0,1012.1,4,7,"",95
"2020-10-31 05:44:00",13.1,12.3,0.2,0.0,0,1012.1,4,7,"",95
"2020-10-31 05:45:00",13.1,12.3,0.2,0.0,0,1012.1,2,4,"",95
"2020-10-31 05:46:00",13.1,12.3,0.2,0.0,0,1012.0,2,5,"",95
"2020-10-31 05:47:00",13.0,12.2,0.2,0.0,0,1012.0,2,6,"",95
"2020-10-31 05:48:00",13.1,12.3,0.2,0.0,0,1012.0,1,5,"",95
"2020-10-31 05:49:00",13.1,12.3,0.2,0.0,0,1011.9,4,6,"",95
"2020-10-31 05:50:00",13.1,12.2,0.2,0.0,0,1012.0,3,7,"",94
"2020-10-31 05:51:00",13.1,12.2,0.2,0.0,0,1011.9,3,6,"",94
"2020-10-31 05:52:00",13.1,12.2,0.2,0.0,0,1011.9,2,4,"",94
"2020-10-31 05:53:00",13.1,12.2,0.2,0.0,0,1011.9,1,3,"",94
"2020-10-31 05:54:00",13.1,12.2,0.2,0.0,0,1011.9,1,3,"",94
"2020-10-31 05:55:00",13.1,12.2,0.2,0.0,0,1011.9,6,11,"",94
"2020-10-31 05:56:00",13.1,12.2,0.2,0.0,0,1011.9,5,9,"",94
"2020-10-31 05:57:00",13.1,12.2,0.2,0.0,0,1011.9,3,6,"",94
"2020-10-31 05:58:00",13.1,12.2,0.2,0.0,0,1011.9,3,5,"",94
"2020-10-31 05:59:00",13.1,12.2,0.2,0.0,0,1011.9,5,8,"",94
"2020-10-31 06:00:00",13.1,12.2,0.2,0.0,0,1011.8,4,7,"",94
"2020-10-31 06:01:00",13.0,12.1,0.2,0.0,0,1011.9,4,7,"",94
"2020-10-31 06:02:00",13.1,12.2,0.2,0.0,0,1011.8,4,7,"",94
"2020-10-31 06:03:00",13.1,12.2,0.2,0.0,0,1011.8,2,5,"",94
"2020-10-31 06:04:00",13.1,12.2,0.2,0.0,0,1011.8,5,9,"",94
"2020-10-31 06:05:00",13.1,12.2,0.2,0.0,0,1011.7,5,11,"",94
"2020-10-31 06:06:00",13.1,12.2,0.2,0.0,0,1011.7,4,7,"",94
"2020-10-31 06:07:00",13.1,12.2,0.2,0.0,0,1011.5,4,9,"",94
"2020-10-31 06:08:00",13.1,12.2,0.2,0.0,0,1011.5,3,7,"",94
"2020-10-31 06:09:00",13.1,12.2,0.2,0.0,0,1011.5,3,4,"",94
"2020-10-31 06:10:00",13.1,12.2,0.2,0.0,0,1011.5,6,15,"",94
"2020-10-31 06:11:00",13.1,12.2,0.2,0.0,0,1011.5,4,8,"",94
"2020-10-31 06:12:00",13.1,12.2,0.2,0.0,0,1011.5,1,4,"",94
"2020-10-31 06:13:00",13.1,12.2,0.2,0.0,0,1011.5,3,6,"",94
"2020-10-31 06:14:00",13.1,12.2,0.2,0.0,0,1011.6,5,11,"",94
"2020-10-31 06:15:00",13.1,12.2,0.2,0.0,0,1011.5,4,8,"",94
"2020-10-31 06:16:00",13.1,12.2,0.2,0.0,0,1011.5,2,6,"",94
"2020-10-31 06:17:00",13.1,12.2,0.2,0.0,0,1011.4,2,4,"",94
"2020-10-31 06:18:00",13.1,12.2,0.2,0.0,0,1011.4,2,3,"",94
"2020-10-31 06:19:00",13.1,12.2,0.2,0.0,0,1011.5,5,7,"",94
"2020-10-31 06:20:00",13.1,12.2,0.2,0.0,0,1011.4,3,7,"",94
"2020-10-31 06:21:00",13.1,12.2,0.2,0.0,0,1011.4,4,5,"",94
"2020-10-31 06:22:00",13.1,12.2,0.2,0.0,0,1011.4,2,4,"",94
"2020-10-31 06:23:00",13.1,12.2,0.2,0.0,0,1011.3,3,5,"",94
"2020-10-31 06:24:00",13.1,12.2,0.2,0.0,0,1011.4,2,4,"",94
"2020-10-31 06:25:00",13.2,12.3,0.2,0.0,0,1011.3,4,7,"",94
"2020-10-31 06:26:00",13.2,12.3,0.2,0.0,0,1011.3,3,6,"",94
"2020-10-31 06:27:00",13.1,12.2,0.2,0.0,0,1011.3,2,4,"",94
"2020-10-31 06:28:00",13.2,12.1,0.2,0.0,0,1011.3,0,2,"",93
"2020-10-31 06:29:00",13.2,12.1,0.2,0.0,0,1011.3,4,9,"",93
"2020-10-31 06:30:00",13.2,12.1,0.2,0.0,0,1011.3,3,5,"",93
"2020-10-31 06:31:00",13.2,12.1,0.2,0.0,0,1011.3,2,3,"",93
"2020-10-31 06:32:00",13.2,12.1,0.2,0.0,0,1011.3,2,5,"",93
"2020-10-31 06:33:00",13.2,12.1,0.2,0.0,0,1011.3,3,6,"",93
"2020-10-31 06:34:00",13.2,12.1,0.2,0.0,0,1011.4,5,10,"",93
"2020-10-31 06:35:00",13.2,12.1,0.2,0.0,0,1011.4,3,6,"",93
"2020-10-31 06:36:00",13.2,12.1,0.2,0.0,0,1011.3,3,6,"",93
"2020-10-31 06:37:00",13.1,12.0,0.2,0.0,0,1011.1,6,13,"",93
"2020-10-31 06:38:00",13.2,12.1,0.2,0.0,0,1011.2,4,6,"",93
"2020-10-31 06:39:00",13.2,12.1,0.2,0.0,0,1011.2,5,11,"",93
"2020-10-31 06:40:00",13.2,12.1,0.2,0.0,0,1011.1,5,8,"",93
"2020-10-31 06:41:00",13.2,12.1,0.2,0.0,0,1011.1,2,4,"",93
"2020-10-31 06:42:00",13.2,12.1,0.2,0.0,0,1011.1,4,7,"",93
"2020-10-31 06:43:00",13.2,12.1,0.2,0.0,0,1011.2,4,8,"",93
"2020-10-31 06:44:00",13.2,12.1,0.2,0.0,0,1011.2,2,6,"",93